Regional Weather Roundup
Issued by NWS San Diego, CA

Home | Current Version | Previous Version | Text Only | Print | Product List | Glossary On
Versions: 1 2 3 4 5 6 7 8 9 10 11 12 13 14 15 16 17 18 19 20 21 22 23 24 25 26 27 28 29 30 31 32 33 34 35 36 37 38 39 40 41 42 43 44 45 46 47 48 49 50
000
ASUS46 KSGX 020210
RWRSGX

SAN DIEGO HOURLY WEATHER ROUNDUP
NATIONAL WEATHER SERVICE SAN DIEGO CA
700 PM PDT MON SEP 01 2014

NOTE: "FAIR" INDICATES FEW OR NO CLOUDS BELOW 12,000 FEET WITH NO
SIGNIFICANT WEATHER AND/OR OBSTRUCTIONS TO VISIBILITY.

CAZ042-043-060-061-PZZ750-775-020300-

GREATER SAN DIEGO AREA

CITY           SKY/WX    TMP DP  RH WIND       PRES   REMARKS
LINDBERGH FLD  PTCLDY    72  62  71 S7        29.81R
POINT LOMA       N/A     71  61  71 S3          N/A
NATIONAL CITY    N/A     72  65  79 S3        29.81R
IMPERIAL BEACH CLEAR     70  63  78 SW6       29.81R
BROWN FIELD    CLEAR     70  62  76 W6        29.80S
MIRAMAR MCAS   PTCLDY    72  61  68 SW6       29.80S
MONTGOMERY FLD CLEAR     72  62  71 SW6       29.80S

$$

NORTH SAN DIEGO COUNTY

CITY           SKY/WX    TMP DP  RH WIND       PRES   REMARKS
CAMP PENDLETON CLEAR     71  62  73 SW5       29.78S HAZE
OCEANSIDE AP   CLEAR     72  62  71 S6        29.78S
OCEANSIDE HBR    N/A     71  65  80 S9        29.81S
VISTA            N/A     74  65  71 CALM      29.77S
CARLSBAD       CLEAR     71  62  73 SW7       29.79R
DEL MAR          N/A     69  65  86 CALM      29.82R
LA JOLLA SCRIP   N/A     70  65  84 SW6       29.77S
FALLBROOK        N/A     75  65  70 S1        29.78S
ESCONDIDO        N/A     79  63  58 SW2       29.79S
SAN MARCOS       N/A     74  64  70 CALM      29.76S
POWAY            N/A     76  62  61 W1        29.79R

$$

EAST SAN DIEGO COUNTY

CITY           SKY/WX    TMP DP  RH WIND       PRES   REMARKS
RAMONA         CLEAR     77  58  51 W7        29.82S
SANTEE LAKES     N/A     73  63  69 SW6       29.80R
LA MESA          N/A     72  64  77 SW7       29.74R
JAMUL            N/A     72  63  72 CALM      29.77S
DESCANSO N       N/A     79  55  42 CALM      29.64S
MT. LAGUNA OBS   N/A     71  33  24 SW3       29.68R
CAMPO            N/A     80  47  31 SW7       29.85R

$$

ORANGE COUNTY AND THE LOS ANGELES BASIN

CITY           SKY/WX    TMP DP  RH WIND       PRES   REMARKS
JOHN WAYNE AP  PTCLDY    75  63  66 SW9       29.78R
LAGUNA BEACH     N/A     74  66  75 S3        29.74S
LAKE FOREST FR   N/A     77  59  55 CALM      29.68R
SANTA ANA        N/A     76  66  70 CALM      29.73R
HUNTINGTON BCH   N/A     72  65  80 CALM      29.80S
LOS ALAMITOS   FAIR      73  64  75 S8        29.78R
FULLERTON      CLEAR     76  62  62 S6        29.76S
LONG BEACH     CLEAR     73  62  68 SW7       29.77S
L.A. AP        PTCLDY    73  66  78 SW9       29.78S
L.A. DOWNTOWN  CLEAR     78  64  61 SW3       29.76S

$$

THE INLAND EMPIRE

CITY           SKY/WX    TMP DP  RH WIND       PRES   REMARKS
CORONA         CLEAR     81  62  52 W9        29.77R
CHINO          PTCLDY    82  60  47 SW10      29.78R
ONTARIO        PTCLDY    86  56  35 SW12      29.77S
SAN BERNARDINO CLEAR     86  54  32 SW9       29.78R
RIVERSIDE AP   CLEAR     85  59  41 W6        29.77R
RIV CYN CREST    N/A     86  68  53 W5        29.76R
MORENO VALLEY    N/A     87  60  39 SW3         N/A
MARCH ARB      PTCLDY    85  60  41 NW7       29.82R
HORSETHIEF CYN   N/A     87  51  28 NW5       29.77R
PERRIS           N/A     87  24  10 S6        29.78S
MENIFEE          N/A     87  24  10 S6        29.85S
HEMET EAST       N/A     85  39  19 CALM      29.77R
FRENCH VALLEY  FAIR      82  36  18 SW8       29.82R
TEMECULA         N/A     83  57  40 CALM      29.75R

$$

SAN BERNARDINO AND RIVERSIDE COUNTY MOUNTAINS

CITY           SKY/WX    TMP DP  RH WIND       PRES   REMARKS
BIG BEAR AP    CLEAR     70  23  17 W6        30.16S
PINE COVE        N/A     73  40  30 CALM      29.66S

$$

SOUTHERN DESERT INCLUDING THE COACHELLA VALLEY

CITY           SKY/WX    TMP DP  RH WIND       PRES   REMARKS
PALM SPRINGS   CLEAR    102  32   8 NW10      29.67S HX  95
THOUSAND PALMS   N/A    101  32   9 NW9       29.61S
PALM DESERT      N/A    102  49  16 CALM        N/A  HX  98
THERMAL        CLEAR     97  52  21 CALM      29.60S
BLYTHE         CLEAR    103  47  15 S6        29.64S HX  99
IMPERIAL AP    CLEAR    105  46  13 E5        29.60S HX 101
YUMA AZ        CLEAR    106  42  11 S3        29.63S HX 101
MEXICALI       CLEAR    106  37   9 E3        29.62  HX 100

$$

UPPER DESERT

CITY           SKY/WX    TMP DP  RH WIND       PRES   REMARKS
VICTORVILLE AP CLEAR     90  28  11 S13       29.85R
HESPERIA         N/A     86  45  23 W14       29.80S
APPLE VALLEY     N/A     87  38  17 SW2G20    29.93R
PALMDALE       CLEAR     87  36  16 SW14      29.83S
LANCASTER      CLEAR     86  34  15 SW18      29.82R
EDWARDS AFB    CLEAR     92  40  16 SW18G24   29.78R
DAGGETT        CLEAR     99  34  10 N5        29.74F
29 PALMS N     CLEAR     97  35  11 SW10      29.82S
NEEDLES        CLEAR    103  33   9 SW8       29.69S HX  96

$$

REGIONAL REPORTS

CITY           SKY/WX    TMP DP  RH WIND       PRES   REMARKS
SANTA BARBARA  CLEAR     71  62  73 CALM      29.77F
SANDBERG       CLEAR     78  46  32 SW12      30.01R
MT. WILSON       N/A     73  36  25 NE5         N/A
LAS VEGAS NV   CLEAR    100  35  10 S14       29.72R
PHOENIX AZ     PTCLDY   104  40  11 N7        29.70F HX  98
TIJUANA        CLEAR     72  59  64 NW9       29.82
ENSENADA NW      N/A     70  32  24 W1        29.78S

$$

OFFSHORE ISLANDS

CITY           SKY/WX    TMP DP  RH WIND       PRES   REMARKS
CATALINA ARPT  PTCLDY    66  62  87 NW7       29.83S
SAN NICOLAS IS PTCLDY   N/A N/A N/A W18       29.80S

$$

MARINE AND OFFSHORE BUOY REPORTS

STATION/POSITION SKY/WX   TEMP    WIND        PRES    SWELL
                          AIR SEA DIR/SP/G            HT/PER/DIR
                          (F)     (DEG/KT/KT) (MB)    (FT/S/D)
TANNER BANKS               65 69  320/ 16/ 17 1009.2R   5/320/ 8
S CLEMENTE BASIN           70 72  280/  8/ 10 1008.5R   3/200/14
SAN NICOLAS IS.               64                N/A     3/170/15
SO. S. ROSA ISLA           64 67  320/ 17/ 21 1008.4F   5/ 8
W. S. BARBARA CH           63 64  310/ 19/ 23 1008.0F   3/300/ 9
S. MONICA BASIN            70 73  300/ 10/ 10 1008.0S   2/190/14
S PEDRO CHANNEL               74                N/A     2/190/14
DANA POINT                    75                N/A     2/200/14
CMP PENDLETON NS              74                N/A     2/210/15
OCEANSIDE OFFSHR              74                N/A     2/210/14
TORREY PINES OTR              74                N/A     2/220/15
LA JOLLA 1                 70 73  240/  7/  9 1008.9S
MISSION BAY BUOY              74                N/A     2/200/15
SAN DIEGO BAY                 76              1009.5R
POINT LOMA SOUTH              74                N/A     3/210/14

$$



USA.gov is the U.S. government's official web portal to all federal, state and local government web resources and services.